Lid_Strength_Index
-1 -1 -1 -1 -1 -1 -1 -1 -1 -1 -1 -1 -1 -1 -1 -1 -1 0 -1 -0 -0 -1 -1 -1 -0 -1 -1 -1 -0 -0 0 1 0 1 1 0 -0 -1 -1 -2 -2 -2 -2
-1 -1 -1 -1 -1 -1 -1 -1 -1 -1 -1 -1 -1 -1 -1 -1 -1 -0 -0 -1 -1 -2 -2 -1 -0 -0 -1 -1 -0 -0 1 1 1 1 1 0 -0 -1 -1 -2 -2 -2 -2
-1 -0 -1 -1 -1 -2 -1 -1 -1 -1 -1 -1 -1 -1 -1 -1 -1 -0 -1 -1 -0 -1 -2 -1 -0 0 -1 -1 -1 -0 1 1 1 1 1 0 -0 -1 -1 -1 -2 -2 -2
-1 -1 -0 -1 -1 -1 -1 -1 -1 -0 -0 -0 -0 -0 -0 -1 -1 -0 -1 -0 -1 -1 -1 -1 -1 -0 -0 -1 -0 -0 0 1 1 1 1 0 -0 -1 -1 -1 -2 -2 -2
-1 -1 -0 -1 -2 -1 -1 -1 -0 -0 0 0 0 -0 -0 -0 -1 0 -1 -2 -2 -1 -1 -2 -1 0 -0 -0 -0 0 0 1 1 1 1 1 0 -0 -0 -1 -1 -2 -2
-1 -1 -1 -0 -1 -0 -0 -0 -0 -0 -0 0 0 0 0 -0 -1 -0 -1 -1 -1 -1 -0 -2 -2 -0 -0 0 0 0 0 1 1 1 1 1 1 0 0 -1 -1 -2 -2
-1 -1 -0 -0 -0 0 -0 -1 -0 0 0 -0 1 1 1 -0 -0 -0 -1 -0 -1 -1 -0 -1 -2 -1 0 -0 0 1 1 1 1 1 1 1 1 1 0 0 -0 -1 -2
-1 -1 -1 -0 -0 0 0 -0 -0 1 1 -0 2 1 4 2 1 0 -0 -0 -1 -1 0 -0 -2 -2 -1 -1 -1 0 1 1 1 2 2 2 2 2 1 0 0 -0 -1
-1 -1 -1 -1 -1 -0 1 0 1 0 2 1 0 2 4 5 3 1 1 0 -0 -0 0 -0 -1 -2 -1 -2 -1 -0 1 2 2 2 2 2 2 2 2 1 1 0 -1
-1 -1 -1 -1 -1 -1 -0 0 -0 0 1 2 1 1 0 1 4 4 1 1 0 0 -0 0 -0 -1 -1 -1 -1 0 2 3 3 2 2 2 3 3 3 2 1 1 0
-1 -1 -1 -1 -1 -0 -1 -0 -0 0 0 1 2 1 1 1 1 3 4 3 1 0 -0 -0 0 -1 -1 -0 -1 1 2 3 3 3 3 3 3 3 3 3 2 1 1
-1 -1 -1 -1 -1 -1 -0 -0 -0 0 0 0 1 1 2 2 3 3 3 3 3 1 0 0 0 -1 -1 1 -1 1 3 4 4 4 4 4 4 4 4 4 3 2 1
-0 -1 -1 -1 -0 -1 -1 -1 -0 -0 0 1 1 2 1 1 1 1 2 3 3 2 1 0 0 -1 -1 1 -0 1 3 4 4 5 5 5 5 5 5 5 4 3 2
-0 -2 -1 -1 -1 -1 -1 -1 -0 0 -0 0 0 0 1 1 1 1 2 3 4 3 2 2 1 -1 -1 1 -0 1 3 4 5 5 5 5 5 5 6 6 5 4 4
-1 -1 -1 -1 -1 -1 -1 -1 0 -0 -0 0 0 0 1 1 0 1 1 1 3 5 4 2 2 -1 -0 1 0 0 2 5 5 5 5 5 6 6 6 6 6 5 5
-1 -1 -1 -1 -1 -1 -1 -1 -0 -0 0 0 1 0 1 1 0 0 1 1 1 3 4 1 2 0 -0 2 1 -1 1 4 5 5 5 5 6 7 7 7 6 6 6
-1 -1 -1 -1 -0 -0 -0 -0 -0 0 0 0 0 1 1 0 1 1 1 1 1 2 3 2 2 1 0 1 1 -0 2 2 4 5 5 5 6 7 7 7 7 7 7
-1 -1 -1 -1 -0 -0 -0 -0 1 0 1 1 1 1 1 1 1 1 1 1 1 1 2 3 3 2 1 1 0 0 1 2 3 5 5 6 7 7 7 7 7 8 8
-1 -1 -1 -0 -0 -0 -0 -0 0 0 0 0 0 1 1 1 1 1 1 1 1 1 1 3 3 3 1 2 1 0 0 2 2 5 5 6 7 8 7 7 7 8 8
-0 -0 -0 -0 -0 -0 -0 -0 -0 0 0 0 0 0 0 1 1 1 1 1 1 2 1 3 4 4 2 2 1 2 2 2 3 4 4 4 5 7 7 7 8 8 8
-0 -0 -0 -0 -0 -0 0 -0 -0 0 1 1 0 0 0 1 2 1 1 1 2 2 2 3 4 5 4 4 3 1 2 3 2 3 4 4 3 5 7 8 8 8 9
-0 -0 0 0 0 0 2 3 1 1 0 1 1 1 0 1 2 6 5 3 3 2 3 3 3 5 3 3 2 2 2 3 5 2 3 5 4 5 7 8 9 9 9
0 0 0 0 0 -0 4 4 3 0 1 1 1 1 1 1 2 2 6 5 5 6 4 2 2 2 3 1 1 1 2 3 4 4 3 6 5 6 7 9 9 9 9
1 1 1 0 0 0 4 4 4 0 1 1 0 0 1 1 1 2 4 4 4 4 3 3 1 1 0 0 1 1 1 2 3 3 3 7 5 6 6 8 9 10 9
1 1 1 1 1 0 4 5 4 1 1 1 0 0 1 1 5 8 5 4 5 6 9 9 7 8 8 8 4 3 4 4 5 5 4 6 6 6 7 7 8 10 9
1 1 1 0 1 1 3 5 4 1 1 2 1 1 7 2 10 10 5 6 7 7 6 5 6 7 5 6 7 2 5 6 6 6 5 6 7 7 9 7 7 7 6